Weather History for Port Aransas, TX

Change the Weather History Date:

Sunday, November 25, 2012

  Actual Average (KCRP) Record (KCRP)
Temperature  
Mean Temperature 62 °F 63 °F  
Max Temperature 71 °F 73 °F 91 °F (1915)
Min Temperature 53 °F 53 °F 36 °F (1993)
Degree Days  
Heating Degree Days 3 5  
Month to date heating degree days 65  
Since 1 July heating degree days 75  
Cooling Degree Days 0 3  
Month to date cooling degree days 111  
Year to date cooling degree days 3462  
Growing Degree Days 12 (Base 50)    
Moisture  
Dew Point 59 °F    
Average Humidity 81    
Maximum Humidity 100    
Minimum Humidity 55    
Precipitation  
Precipitation 0.00 in 0.05 in 1.91 in (1980)
Month to date precipitation 1.73  
Year to date precipitation 29.69  
Snow  
Snow 0.00 in - - ()
Month to date snowfall  
Since 1 July snowfall  
Since 1 September snowfall  
Snow Depth -    
Sea Level Pressure  
Sea Level Pressure 30.04 in    
Wind  
Wind Speed 5 mph (East)    
Max Wind Speed 15 mph    
Max Gust Speed 18 mph    
Visibility 10 miles    
Events      
T = Trace of Precipitation, MM = Missing Value Source: NWS Daily Summary

Daily Weather History Graph

Daily Weather History Graph

Search for Another Location

Airport:

Trip Planner

Search our weather history database for the weather conditions in past years. The results will help you decide how hot, cold, wet, or windy it might be!

Date:

Astronomy

Nov. 25, 2012 Rise Set
Actual Time 6:57 AM CST 5:33 PM CST
Civil Twilight 6:32 AM CST 5:58 PM CST
Nautical Twilight 6:03 AM CST 6:26 PM CST
Astronomical Twilight 5:35 AM CST 6:55 PM CST
Moon 3:42 PM CST 4:22 AM CST
Length of Visible Light 11h 25m
Length of Day
10h 35m
Waxing Gibbous, 93% of the Moon is Illuminated
Nov 25
Waxing Gibbous
Nov 28
Full
Dec 6
Last Quarter
Dec 13
New
Dec 19
First Quarter

Hourly Weather History & Observations

Time (CST) Temp. Dew Point Humidity Pressure Visibility Wind Dir Wind Speed Gust Speed Precip Events Conditions
12:15 AM 60.8 °F 46.4 °F 59% 30.16 in 10.0 mi ESE 4.6 mph - N/A   Clear
12:35 AM 60.8 °F 46.4 °F 59% 30.15 in 10.0 mi SE 4.6 mph - N/A   Clear
12:55 AM 62.6 °F 46.4 °F 55% 30.15 in 10.0 mi SE 3.5 mph - N/A   Clear
1:15 AM 62.6 °F 48.2 °F 59% 30.14 in 10.0 mi SE 4.6 mph - N/A   Clear
1:35 AM 60.8 °F 50.0 °F 68% 30.13 in 10.0 mi SE 4.6 mph - N/A   Clear
1:55 AM 60.8 °F 50.0 °F 68% 30.13 in 10.0 mi SSE 3.5 mph - N/A   Clear
2:15 AM 60.8 °F 51.8 °F 72% 30.12 in 10.0 mi Calm Calm - N/A   Clear
2:35 AM 60.8 °F 51.8 °F 72% 30.11 in 10.0 mi SSE 3.5 mph - N/A   Clear
2:55 AM 60.8 °F 51.8 °F 72% 30.11 in 10.0 mi Calm Calm - N/A   Clear
3:15 AM 60.8 °F 51.8 °F 72% 30.11 in 10.0 mi Calm Calm - N/A   Clear
3:35 AM 59.0 °F 51.8 °F 77% 30.10 in 10.0 mi Calm Calm - N/A   Clear
3:55 AM 57.2 °F 51.8 °F 82% 30.09 in 10.0 mi NNW 3.5 mph - N/A   Clear
4:15 AM 57.2 °F 53.6 °F 88% 30.09 in 10.0 mi NNW 4.6 mph - N/A   Clear
4:35 AM 55.4 °F 53.6 °F 94% 30.09 in 10.0 mi NNW 3.5 mph - N/A   Clear
4:55 AM 55.4 °F 51.8 °F 88% 30.09 in 10.0 mi North 3.5 mph - N/A   Clear
5:15 AM 55.4 °F 51.8 °F 88% 30.08 in 10.0 mi North 3.5 mph - N/A   Clear
5:35 AM 55.4 °F 51.8 °F 88% 30.08 in 10.0 mi North 3.5 mph - N/A   Clear
5:55 AM 55.4 °F 51.8 °F 88% 30.09 in 10.0 mi NNW 4.6 mph - N/A   Clear
6:15 AM 55.4 °F 51.8 °F 88% 30.09 in 10.0 mi NNW 3.5 mph - N/A   Clear
6:35 AM 53.6 °F 51.8 °F 94% 30.09 in 10.0 mi North 5.8 mph - N/A   Clear
6:55 AM 55.4 °F 51.8 °F 88% 30.10 in 10.0 mi NNW 4.6 mph - N/A   Clear
7:15 AM 55.4 °F 51.8 °F 88% 30.10 in 10.0 mi NNW 4.6 mph - N/A   Clear
7:35 AM 55.4 °F 51.8 °F 88% 30.10 in 10.0 mi North 3.5 mph - N/A   Scattered Clouds
7:55 AM 59.0 °F 53.6 °F 82% 30.10 in 10.0 mi North 4.6 mph - N/A   Mostly Cloudy
8:15 AM 59.0 °F 53.6 °F 82% 30.10 in 10.0 mi North 4.6 mph - N/A   Scattered Clouds
8:35 AM 60.8 °F 53.6 °F 77% 30.10 in 10.0 mi North 5.8 mph - N/A   Clear
8:55 AM 60.8 °F 53.6 °F 77% 30.11 in 10.0 mi North 4.6 mph - N/A   Clear
9:15 AM 62.6 °F 55.4 °F 77% 30.11 in 10.0 mi North 3.5 mph - N/A   Mostly Cloudy
9:35 AM 64.4 °F 55.4 °F 73% 30.11 in 10.0 mi North 3.5 mph - N/A   Overcast
9:55 AM 66.2 °F 57.2 °F 73% 30.11 in 10.0 mi NNE 3.5 mph - N/A   Overcast
10:15 AM 66.2 °F 57.2 °F 73% 30.11 in 10.0 mi Calm Calm - N/A   Overcast
10:35 AM 68.0 °F 59.0 °F 73% 30.10 in 10.0 mi NNE 3.5 mph - N/A   Overcast
10:55 AM 68.0 °F 59.0 °F 73% 30.10 in 10.0 mi East 4.6 mph - N/A   Overcast
11:15 AM 71.6 °F 59.0 °F 64% 30.09 in 10.0 mi East 4.6 mph - N/A   Mostly Cloudy
11:35 AM 71.6 °F 59.0 °F 64% 30.08 in 10.0 mi ENE 8.1 mph - N/A   Scattered Clouds
11:55 AM 69.8 °F 60.8 °F 73% 30.07 in 10.0 mi East 6.9 mph - N/A   Scattered Clouds
12:15 PM 71.6 °F 60.8 °F 69% 30.05 in 10.0 mi ENE 6.9 mph - N/A   Mostly Cloudy
12:35 PM 69.8 °F 60.8 °F 73% 30.04 in 10.0 mi ENE 6.9 mph - N/A   Overcast
12:55 PM 69.8 °F 60.8 °F 73% 30.03 in 10.0 mi ENE 8.1 mph - N/A   Overcast
1:15 PM 69.8 °F 60.8 °F 73% 30.01 in 10.0 mi ENE 8.1 mph - N/A   Overcast
1:35 PM 69.8 °F 60.8 °F 73% 30.00 in 10.0 mi East 8.1 mph - N/A   Overcast
1:55 PM 69.8 °F 62.6 °F 78% 29.99 in 10.0 mi ENE 9.2 mph - N/A   Overcast
2:15 PM 69.8 °F 62.6 °F 78% 29.98 in 10.0 mi ENE 8.1 mph - N/A   Overcast
2:35 PM 69.8 °F 62.6 °F 78% 29.98 in 10.0 mi ENE 6.9 mph - N/A   Overcast
2:55 PM 69.8 °F 62.6 °F 78% 29.98 in 10.0 mi East 8.1 mph - N/A   Overcast
3:15 PM 69.8 °F 62.6 °F 78% 29.97 in 10.0 mi ENE 6.9 mph - N/A   Overcast
3:35 PM 69.8 °F 62.6 °F 78% 29.96 in 10.0 mi ENE 5.8 mph - N/A   Mostly Cloudy
3:55 PM 69.8 °F 62.6 °F 78% 29.96 in 10.0 mi ENE 6.9 mph - N/A   Mostly Cloudy
4:15 PM 69.8 °F 62.6 °F 78% 29.96 in 10.0 mi East 6.9 mph - N/A   Mostly Cloudy
4:35 PM 69.8 °F 64.4 °F 83% 29.96 in 10.0 mi East 5.8 mph - N/A   Scattered Clouds
4:55 PM 69.8 °F 64.4 °F 83% 29.95 in 10.0 mi East 6.9 mph - N/A   Mostly Cloudy
5:15 PM 69.8 °F 64.4 °F 83% 29.95 in 10.0 mi ENE 5.8 mph - N/A   Mostly Cloudy
5:35 PM 68.0 °F 64.4 °F 88% 29.95 in 10.0 mi East 3.5 mph - N/A   Scattered Clouds
5:55 PM 68.0 °F 64.4 °F 88% 29.95 in 10.0 mi East 3.5 mph - N/A   Clear
6:15 PM 68.0 °F 66.2 °F 94% 29.95 in 10.0 mi ESE 4.6 mph - N/A   Clear
6:35 PM 69.8 °F 66.2 °F 88% 29.95 in 10.0 mi SE 5.8 mph - N/A   Clear
6:55 PM 68.0 °F 66.2 °F 94% 29.95 in 10.0 mi SSE 5.8 mph - N/A   Clear
7:15 PM 69.8 °F 66.2 °F 88% 29.96 in 10.0 mi SE 4.6 mph - N/A   Clear
7:35 PM 69.8 °F 66.2 °F 88% 29.96 in 10.0 mi SE 5.8 mph - N/A   Clear
7:55 PM 69.8 °F 66.2 °F 88% 29.96 in 10.0 mi SE 4.6 mph - N/A   Clear
8:15 PM 68.0 °F 66.2 °F 94% 29.96 in 10.0 mi SE 3.5 mph - N/A   Clear
8:35 PM 68.0 °F 66.2 °F 94% 29.97 in 10.0 mi SE 3.5 mph - N/A   Scattered Clouds
8:55 PM 68.0 °F 66.2 °F 94% 29.97 in 10.0 mi SSE 4.6 mph - N/A   Clear
9:15 PM 68.0 °F 66.2 °F 94% 29.98 in 10.0 mi SSE 5.8 mph - N/A   Clear
9:35 PM 68.0 °F 66.2 °F 94% 29.97 in 10.0 mi South 6.9 mph - N/A   Clear
9:55 PM 68.0 °F 68.0 °F 100% 29.97 in 10.0 mi South 8.1 mph - N/A   Clear
10:15 PM 68.0 °F 66.2 °F 94% 29.97 in 10.0 mi South 9.2 mph - N/A   Clear
10:35 PM 68.0 °F 64.4 °F 88% 29.97 in 10.0 mi South 10.4 mph - N/A   Clear
10:55 PM 68.0 °F 64.4 °F 88% 29.97 in 10.0 mi South 15.0 mph 18.4 mph N/A   Clear
11:15 PM 68.0 °F 64.4 °F 88% 29.97 in 10.0 mi South 13.8 mph - N/A   Clear
11:35 PM 68.0 °F 64.4 °F 88% 29.97 in 10.0 mi South 11.5 mph - N/A   Clear
11:55 PM 68.0 °F 64.4 °F 88% 29.96 in 10.0 mi South 10.4 mph - N/A   Clear